EW8748 Weather Reports


time (UTC)temp
F
wind
direction
speed
knots
gust
knots
rain 1hr
in
rain 24hr
in
rain mn
in
humidity
%
barometer
mb
20260508054019 59 323 2.6 4.3 0.00 0.00 0.00 83 1011.9
20260508052512 58 287 1.7 2.6 0.00 0.00 0.00 83 1011.8
20260508052019 58 315 1.7 2.6 0.00 0.00 0.00 84 1011.8
20260508051511 57 359 1.7 2.6 0.00 0.00 0.00 85 1011.6
20260508050512 56 320 0.9 1.7 0.00 0.00 0.00 88 1011.5
20260508050012 56 359 0.9 1.7 0.00 0.00 0.00 88 1011.4
20260508045515 56 303 0.9 2.6 0.00 0.00 0.00 89 1011.3
20260508045019 55 359 1.7 1.7 0.00 0.00 0.00 91 1011.2
20260508043511 54 359 0.9 1.7 0.00 0.00 0.00 92 1011.2
20260508042511 54 359 0.9 1.7 0.00 0.00 0.00 92 1011.0
20260508041511 54 359 0.9 2.6 0.00 0.00 0.00 92 1010.8
20260508040511 54 359 0.9 2.6 0.00 0.00 0.00 93 1010.9
20260508034020 54 359 1.7 2.6 0.00 0.00 0.00 93 1010.6
20260508031511 55 359 0.9 2.6 0.00 0.00 0.00 93 1010.5
20260508031018 55 359 0.9 2.6 0.00 0.00 0.00 93 1010.5
20260508030511 55 292 1.7 2.6 0.00 0.00 0.00 93 1010.5
20260508030011 56 298 0.9 2.6 0.00 0.00 0.00 93 1010.3
20260508025019 56 272 0.9 2.6 0.00 0.00 0.00 93 1010.3
20260508024511 56 272 0.9 1.7 0.00 0.00 0.00 93 1010.3
20260508023512 56 359 0.9 1.7 0.00 0.00 0.00 93 1010.1
20260508023019 56 271 0.9 1.7 0.00 0.00 0.00 93 1010.2
20260508022020 56 249 0.9 1.7 0.00 0.00 0.00 93 1010.3
20260508021512 56 359 0.9 1.7 0.00 0.00 0.00 92 1010.3
20260508020511 56 282 0.9 2.6 0.00 0.00 0.00 93 1010.4
20260508015511 57 137 0.9 1.7 0.00 0.00 0.00 93 1010.2
20260508013511 57 62 1.7 2.6 0.00 0.00 0.00 92 1010.1
20260508012511 57 103 0.9 2.6 0.00 0.00 0.00 92 1010.0
20260508012018 57 57 1.7 4.3 0.00 0.00 0.00 92 1010.0
20260508011018 57 89 2.6 2.6 0.00 0.00 0.00 92 1009.7
20260508010511 57 108 1.7 2.6 0.00 0.00 0.00 92 1009.8
20260508010011 57 75 2.6 7.0 0.00 0.00 0.00 92 1009.9
20260508005018 57 359 1.7 2.6 0.00 0.00 0.00 92 1010.2
20260508004511 57 102 1.7 5.2 0.00 0.00 0.00 92 1010.2
20260508004018 57 82 2.6 5.2 0.00 0.00 0.00 91 1010.2
20260508003511 57 75 1.7 2.6 0.00 0.00 0.00 91 1010.4
20260508001018 57 96 1.7 2.6 0.00 0.00 0.00 91 1010.8
20260508000511 57 88 0.9 2.6 0.00 0.00 0.00 91 1011.0
20260507235511 57 101 2.6 6.1 0.00 0.00 0.00 92 1011.1
20260507234018 57 69 1.7 5.2 0.00 0.00 0.00 92 1011.3
20260507233018 57 84 0.9 1.7 0.00 0.00 0.00 92 1011.9
20260507232018 57 87 0.9 2.6 0.00 0.00 0.00 92 1012.1
20260507231511 57 66 1.7 2.6 0.00 0.00 0.00 92 1012.1
20260507230011 57 55 1.7 2.6 0.00 0.00 0.00 92 1012.2
20260507225511 57 55 1.7 6.1 0.00 0.00 0.00 93 1012.2
20260507225018 57 78 3.5 6.1 0.00 0.00 0.00 93 1012.0
20260507224018 57 78 1.7 2.6 0.00 0.00 0.00 93 1011.7
20260507222018 57 53 1.7 2.6 0.00 0.00 0.00 93 1012.1
20260507221511 57 54 0.9 2.6 0.00 0.00 0.00 93 1012.4
20260507221017 57 89 1.7 2.6 0.00 0.00 0.00 93 1012.3
20260507220511 57 74 1.7 2.6 0.00 0.00 0.00 93 1012.2
20260507220013 57 96 4.3 6.1 0.00 0.00 0.00 93 1012.0
20260507214017 57 76 5.2 10.4 0.00 0.00 0.00 93 1011.0
20260507212511 57 91 5.2 8.7 0.00 0.00 0.00 93 1011.4
20260507211511 57 75 5.2 11.3 0.00 0.00 0.00 93 1011.3
20260507211018 57 58 6.1 10.4 0.00 0.00 0.00 93 1011.2
20260507210511 57 90 5.2 10.4 0.00 0.00 0.00 93 1011.3
20260507205511 57 80 4.3 10.4 0.00 0.00 0.00 93 1011.2
20260507205021 57 95 6.1 8.7 0.00 0.00 0.00 93 1011.0
20260507204515 57 76 5.2 10.4 0.00 0.00 0.00 93 1011.2
20260507204021 57 100 5.2 10.4 0.00 0.00 0.00 93 1011.0
20260507201514 57 92 5.2 10.4 0.00 0.00 0.00 94 1011.0
20260507200515 57 78 4.3 7.8 0.00 0.00 0.00 94 1011.2
20260507195515 57 88 4.3 10.4 0.00 0.00 0.00 94 1011.1
20260507194514 57 94 6.1 10.4 0.00 0.00 0.00 94 1011.3
20260507193514 57 100 5.2 10.4 0.00 0.00 0.00 94 1011.1
20260507193021 57 72 3.5 10.4 0.00 0.00 0.00 93 1011.1
20260507192515 57 102 6.1 11.3 0.00 0.00 0.00 93 1010.7
20260507191514 57 107 6.1 12.2 0.00 0.00 0.00 93 1010.6
20260507190514 57 141 5.2 10.4 0.00 0.00 0.00 93 1010.5
20260507185515 57 98 5.2 10.4 0.00 0.00 0.00 93 1010.5
20260507185021 57 77 7.8 12.2 0.00 0.00 0.00 93 1010.5
20260507182515 58 94 6.1 11.3 0.00 0.00 0.00 92 1010.3
20260507182022 58 107 5.2 10.4 0.00 0.00 0.00 92 1010.4
20260507181514 58 99 4.3 10.4 0.00 0.00 0.00 92 1010.4
20260507181023 58 64 5.2 8.7 0.00 0.00 0.00 92 1010.3
20260507180014 58 100 6.1 10.4 0.00 0.00 0.00 91 1010.2
20260507175022 58 130 6.1 12.2 0.00 0.00 0.00 91 1010.1
20260507173023 58 96 6.1 10.4 0.00 0.00 0.00 91 1010.1
20260507172515 58 87 5.2 11.3 0.00 0.00 0.00 91 1010.0
20260507172022 58 104 6.1 13.0 0.00 0.00 0.00 91 1009.9
20260507171515 58 56 7.8 13.0 0.00 0.00 0.00 90 1009.9
20260507165515 58 110 6.1 11.3 0.00 0.00 0.00 90 1010.1
20260507164022 58 81 7.8 13.9 0.00 0.00 0.00 89 1009.9
20260507163515 58 48 7.0 13.9 0.00 0.00 0.00 89 1009.9
20260507163022 58 104 7.8 13.0 0.00 0.00 0.00 89 1010.1
20260507162515 58 85 7.0 13.0 0.00 0.00 0.00 89 1010.3
20260507162022 58 81 8.7 13.9 0.00 0.00 0.00 89 1010.3
20260507161515 58 76 7.8 15.6 0.00 0.00 0.00 89 1010.1
20260507161022 58 67 7.0 14.8 0.00 0.00 0.00 89 1010.1
20260507160514 58 97 7.0 11.3 0.00 0.00 0.00 89 1010.0
20260507160014 58 102 8.7 13.9 0.00 0.00 0.00 88 1010.0
20260507155514 58 83 6.1 17.4 0.00 0.00 0.00 88 1010.2
20260507154514 58 50 8.7 20.0 0.00 0.00 0.00 88 1009.8
20260507154022 58 99 8.7 14.8 0.00 0.00 0.00 88 1009.6
20260507151022 59 103 10.4 17.4 0.00 0.00 0.00 87 1009.8
20260507145022 59 91 7.8 18.2 0.00 0.00 0.00 87 1009.7
20260507142022 58 122 12.2 22.6 0.00 0.00 0.00 87 1009.3
20260507141514 58 122 11.3 20.0 0.00 0.00 0.00 87 1009.3
20260507140514 58 91 12.2 20.0 0.00 0.00 0.00 87 1009.6
20260507132024 58 49 12.2 18.2 0.00 0.00 0.00 87 1009.7
20260507131514 58 116 10.4 22.6 0.00 0.00 0.00 87 1009.8
20260507130514 58 79 12.2 22.6 0.00 0.00 0.00 87 1010.1
20260507125514 58 90 13.9 21.7 0.00 0.00 0.00 87 1009.9
20260507125023 58 45 11.3 22.6 0.00 0.00 0.00 86 1009.9
20260507124515 58 110 9.6 20.9 0.00 0.00 0.00 86 1010.1
20260507124022 58 68 10.4 18.2 0.00 0.00 0.00 87 1010.1
20260507115022 58 185 15.6 24.3 0.00 0.00 0.00 85 1009.8
20260507114514 58 120 12.2 20.9 0.00 0.00 0.00 85 1009.9
20260507114022 58 122 13.0 26.1 0.00 0.00 0.00 84 1009.9
20260507113023 58 95 11.3 18.2 0.00 0.00 0.00 84 1009.8
20260507110515 58 101 12.2 21.7 0.00 0.00 0.00 83 1010.1
20260507110015 58 110 13.0 27.8 0.00 0.00 0.00 83 1010.2
20260507105022 59 67 11.3 20.9 0.00 0.00 0.00 83 1010.3
20260507104514 59 80 12.2 22.6 0.00 0.00 0.00 82 1010.1
20260507103514 59 24 13.0 20.9 0.00 0.00 0.00 81 1010.3
20260507103027 59 91 13.0 24.3 0.00 0.00 0.00 81 1010.4
20260507102514 59 70 13.0 21.7 0.00 0.00 0.00 82 1010.5
20260507100514 60 105 13.9 21.7 0.00 0.00 0.00 80 1010.6
20260507100014 60 52 14.8 24.3 0.00 0.00 0.00 80 1010.6
20260507095021 60 106 15.6 25.2 0.00 0.00 0.00 79 1010.7
20260507093023 60 55 12.2 22.6 0.00 0.00 0.00 79 1010.8
20260507091513 60 76 13.9 20.9 0.00 0.00 0.00 80 1011.1
20260507091021 60 102 12.2 24.3 0.00 0.00 0.00 80 1011.0
20260507085022 60 83 13.9 22.6 0.00 0.00 0.00 81 1010.9
20260507083513 59 45 11.3 18.2 0.00 0.00 0.00 82 1011.1
20260507082515 60 95 13.0 26.1 0.00 0.00 0.00 80 1010.9
20260507081513 60 90 13.9 22.6 0.00 0.00 0.00 81 1010.7
20260507081021 60 95 13.9 22.6 0.00 0.00 0.00 81 1010.6
20260507080016 59 97 13.9 22.6 0.00 0.00 0.00 82 1010.5
20260507075022 59 117 11.3 25.2 0.00 0.00 0.00 83 1010.4
20260507074021 59 96 12.2 21.7 0.00 0.00 0.00 83 1010.5
20260507065514 57 49 11.3 22.6 0.00 0.00 0.00 88 1011.1
20260507064513 57 71 13.0 24.3 0.00 0.00 0.00 90 1011.1
20260507063513 57 108 12.2 18.2 0.00 0.00 0.00 92 1011.2
20260507063021 56 73 11.3 22.6 0.00 0.00 0.00 92 1011.3
20260507062513 56 108 12.2 18.2 0.00 0.00 0.00 92 1011.2
20260507060515 56 108 10.4 17.4 0.00 0.00 0.00 93 1010.9
20260507060014 56 97 9.6 22.6 0.00 0.00 0.00 93 1011.0
20260507055514 56 98 12.2 24.3 0.00 0.00 0.00 93 1010.9
20260507055021 56 83 11.3 18.2 0.00 0.00 0.00 94 1011.0